TimeEDT,TemperatureF,Dew PointF,Humidity,Sea Level PressureIn,VisibilityMPH,Wind Direction,Wind SpeedMPH,Gust SpeedMPH,PrecipitationIn,Events,Conditions,WindDirDegrees,DateUTC
12:06 AM,55.4,53.6,94,30.06,10.0,Calm,Calm,-,N/A,,Clear,0,2013-05-10 04:06:00
12:26 AM,55.4,53.6,94,30.06,10.0,Calm,Calm,-,N/A,,Clear,0,2013-05-10 04:26:00
12:46 AM,55.4,53.6,94,30.07,10.0,Calm,Calm,-,N/A,,Clear,0,2013-05-10 04:46:00
1:06 AM,55.4,53.6,94,30.07,7.0,Calm,Calm,-,N/A,,Clear,0,2013-05-10 05:06:00
1:26 AM,53.6,51.8,94,30.07,10.0,Calm,Calm,-,N/A,,Clear,0,2013-05-10 05:26:00
1:46 AM,53.6,53.6,100,30.06,10.0,Calm,Calm,-,N/A,,Clear,0,2013-05-10 05:46:00
2:06 AM,53.6,51.8,94,30.06,7.0,Calm,Calm,-,N/A,,Clear,0,2013-05-10 06:06:00
2:26 AM,53.6,51.8,94,30.06,7.0,Calm,Calm,-,N/A,,Clear,0,2013-05-10 06:26:00
2:46 AM,53.6,51.8,94,30.06,3.0,Calm,Calm,-,N/A,,Unknown,0,2013-05-10 06:46:00
3:06 AM,51.8,51.8,100,30.06,1.0,Calm,Calm,-,N/A,,Mostly Cloudy,0,2013-05-10 07:06:00
3:26 AM,51.8,51.8,100,30.06,0.2,Calm,Calm,-,N/A,,Overcast,0,2013-05-10 07:26:00
3:46 AM,51.8,51.8,100,30.06,0.8,Calm,Calm,-,N/A,,Overcast,0,2013-05-10 07:46:00
4:06 AM,51.8,50.0,94,30.06,5.0,Calm,Calm,-,N/A,,Scattered Clouds,0,2013-05-10 08:06:00
4:26 AM,50.0,50.0,100,30.06,0.8,Calm,Calm,-,N/A,,Mostly Cloudy,0,2013-05-10 08:26:00
4:47 AM,50.0,50.0,100,30.06,0.2,Calm,Calm,-,N/A,,Overcast,0,2013-05-10 08:47:00
5:07 AM,51.8,50.0,94,30.05,0.2,Calm,Calm,-,N/A,,Overcast,0,2013-05-10 09:07:00
5:27 AM,51.8,50.0,94,30.05,0.2,Calm,Calm,-,N/A,,Overcast,0,2013-05-10 09:27:00
5:47 AM,50.0,48.2,94,30.05,0.2,Calm,Calm,-,N/A,,Overcast,0,2013-05-10 09:47:00
6:07 AM,50.0,48.2,94,30.06,0.5,Calm,Calm,-,N/A,,Overcast,0,2013-05-10 10:07:00
6:27 AM,50.0,50.0,100,30.06,7.0,Calm,Calm,-,N/A,,Scattered Clouds,0,2013-05-10 10:27:00
6:47 AM,50.0,50.0,100,30.06,5.0,Calm,Calm,-,N/A,,Clear,0,2013-05-10 10:47:00
7:07 AM,51.8,51.8,100,30.05,7.0,Calm,Calm,-,N/A,,Clear,0,2013-05-10 11:07:00
7:27 AM,51.8,51.8,100,30.06,7.0,Calm,Calm,-,N/A,,Clear,0,2013-05-10 11:27:00
7:47 AM,51.8,51.8,100,30.06,2.5,Calm,Calm,-,N/A,,Unknown,0,2013-05-10 11:47:00
8:07 AM,53.6,51.8,94,30.06,5.0,Calm,Calm,-,N/A,,Clear,0,2013-05-10 12:07:00
8:27 AM,53.6,53.6,100,30.05,7.0,Calm,Calm,-,N/A,,Clear,0,2013-05-10 12:27:00
8:47 AM,55.4,55.4,100,30.06,10.0,Calm,Calm,-,N/A,,Clear,0,2013-05-10 12:47:00
9:07 AM,55.4,55.4,100,30.05,10.0,Calm,Calm,-,N/A,,Clear,0,2013-05-10 13:07:00
9:27 AM,59.0,55.4,88,30.06,10.0,Calm,Calm,-,N/A,,Clear,0,2013-05-10 13:27:00
9:47 AM,59.0,53.6,82,30.05,10.0,Calm,Calm,-,N/A,,Clear,0,2013-05-10 13:47:00
10:07 AM,60.8,55.4,82,30.05,10.0,Calm,Calm,-,N/A,,Clear,0,2013-05-10 14:07:00
10:27 AM,60.8,53.6,77,30.05,10.0,Calm,Calm,-,N/A,,Clear,0,2013-05-10 14:27:00
10:47 AM,62.6,55.4,77,30.05,10.0,Calm,Calm,-,N/A,,Clear,0,2013-05-10 14:47:00
11:07 AM,62.6,55.4,77,30.05,10.0,Calm,Calm,-,N/A,,Clear,0,2013-05-10 15:07:00
11:27 AM,64.4,55.4,73,30.04,10.0,Calm,Calm,-,N/A,,Clear,0,2013-05-10 15:27:00
11:47 AM,64.4,55.4,73,30.03,10.0,Calm,Calm,-,N/A,,Clear,0,2013-05-10 15:47:00
12:07 PM,66.2,55.4,68,30.02,10.0,Calm,Calm,-,N/A,,Clear,0,2013-05-10 16:07:00
12:27 PM,68.0,57.2,68,30.02,10.0,Calm,Calm,-,N/A,,Clear,0,2013-05-10 16:27:00
12:47 PM,68.0,57.2,68,30.01,10.0,Calm,Calm,-,N/A,,Clear,0,2013-05-10 16:47:00
1:07 PM,71.6,57.2,60,30.00,10.0,SSE,4.6,-,N/A,,Clear,160,2013-05-10 17:07:00
1:27 PM,73.4,57.2,57,29.99,10.0,ESE,3.5,-,N/A,,Clear,110,2013-05-10 17:27:00
1:47 PM,77.0,55.4,47,29.98,10.0,SE,5.8,-,N/A,,Clear,130,2013-05-10 17:47:00
2:08 PM,77.0,53.6,44,29.97,10.0,South,4.6,-,N/A,,Clear,180,2013-05-10 18:08:00
2:28 PM,77.0,53.6,44,29.96,10.0,SSW,3.5,-,N/A,,Clear,200,2013-05-10 18:28:00
2:48 PM,78.8,53.6,42,29.95,10.0,South,4.6,-,N/A,,Clear,170,2013-05-10 18:48:00
3:08 PM,80.6,53.6,39,29.92,10.0,South,3.5,-,N/A,,Clear,180,2013-05-10 19:08:00
3:28 PM,78.8,51.8,39,29.92,10.0,SSE,6.9,-,N/A,,Scattered Clouds,150,2013-05-10 19:28:00
3:48 PM,71.6,59.0,64,29.92,4.0,South,3.5,-,N/A,,Scattered Clouds,190,2013-05-10 19:48:00
4:08 PM,71.6,60.8,69,29.92,10.0,Calm,Calm,-,N/A,,Scattered Clouds,0,2013-05-10 20:08:00
4:28 PM,69.8,62.6,78,29.94,2.5,South,9.2,-,N/A,,Mostly Cloudy,170,2013-05-10 20:28:00
4:48 PM,69.8,60.8,73,29.94,10.0,SSE,3.5,-,N/A,,Scattered Clouds,160,2013-05-10 20:48:00
5:08 PM,68.0,60.8,78,29.93,10.0,SSE,4.6,-,N/A,,Scattered Clouds,160,2013-05-10 21:08:00
5:28 PM,69.8,60.8,73,29.92,10.0,SSE,4.6,-,N/A,,Clear,160,2013-05-10 21:28:00
5:48 PM,68.0,60.8,78,29.92,10.0,South,6.9,-,N/A,,Clear,180,2013-05-10 21:48:00
6:07 PM,66.2,60.8,83,29.99,7.0,SW,17.3,-,N/A,,Scattered Clouds,230,2013-05-10 22:07:00
6:28 PM,62.6,55.4,77,29.98,5.0,SW,6.9,-,N/A,,Overcast,230,2013-05-10 22:28:00
6:48 PM,62.6,55.4,77,29.95,5.0,NE,8.1,-,N/A,,Overcast,50,2013-05-10 22:48:00
7:08 PM,60.8,57.2,88,29.94,10.0,NE,5.8,-,N/A,,Scattered Clouds,40,2013-05-10 23:08:00
7:28 PM,62.6,57.2,82,29.95,10.0,Calm,Calm,-,N/A,,Clear,0,2013-05-10 23:28:00
7:48 PM,60.8,57.2,88,29.96,10.0,SW,4.6,-,N/A,,Clear,220,2013-05-10 23:48:00
8:08 PM,60.8,59.0,94,29.96,10.0,South,3.5,-,N/A,,Clear,170,2013-05-11 00:08:00
8:28 PM,60.8,59.0,94,29.95,10.0,South,4.6,-,N/A,,Scattered Clouds,190,2013-05-11 00:28:00
8:48 PM,60.8,59.0,94,29.95,10.0,SSW,6.9,-,N/A,,Scattered Clouds,200,2013-05-11 00:48:00
9:08 PM,60.8,59.0,94,29.95,10.0,SSW,5.8,-,N/A,,Scattered Clouds,200,2013-05-11 01:08:00
9:28 PM,60.8,59.0,94,29.96,7.0,South,4.6,-,N/A,,Scattered Clouds,180,2013-05-11 01:28:00
9:48 PM,60.8,59.0,94,29.96,7.0,Calm,Calm,-,N/A,,Overcast,0,2013-05-11 01:48:00
10:08 PM,60.8,59.0,94,29.95,5.0,Calm,Calm,-,N/A,,Mostly Cloudy,0,2013-05-11 02:08:00
10:29 PM,60.8,59.0,94,29.93,5.0,Calm,Calm,-,N/A,,Scattered Clouds,0,2013-05-11 02:29:00
10:49 PM,60.8,59.0,94,29.92,4.0,Calm,Calm,-,N/A,,Scattered Clouds,0,2013-05-11 02:49:00
11:09 PM,59.0,59.0,100,29.91,5.0,Calm,Calm,-,N/A,,Scattered Clouds,0,2013-05-11 03:09:00
11:29 PM,59.0,59.0,100,29.90,1.8,Calm,Calm,-,N/A,,Overcast,0,2013-05-11 03:29:00
11:49 PM,59.0,59.0,100,29.90,0.8,Calm,Calm,-,N/A,,Overcast,0,2013-05-11 03:49:00